Погода в Ували

Чехия     50°04′25″N   14°43′50″E
темп.,
°C
ветер,
м/с
пор.,
м/с
влажн.,
%
обл.,
%
осадки,
мм/ч
давл.,
гПа
погр.,
м
6 марта, сб
сб601:00−1зсз12723 0.0 103329
04:00−1зюз22700 0.0 103247
07:00−2зюз34710 0.0 1034122
10:00+2зсз34470 0.0 10341100
13:00+4з34370 0.0 10321393
16:00+4з34390 0.0 10311362
19:000юз22540 0.0 103123
22:00−1зюз22590 0.0 103024
7 марта, вс
вс701:00−1юз22610 0.0 103027
04:00−2юз22610 0.0 102824
07:00−1ююз22600 0.0 102730
10:00+3зюз23470 0.0 1025627
13:00+6зсз45390 0.0 10221094
16:00+6ссз344880 0.0 1020987
19:00+1вюв016940 0.0 102025
22:00−1ссв118417 0.0 102027
8 марта, пн
пн801:00−1ссз11878 0.0 102026
04:00−1з358666 0.0 1019150
07:00−1зсз377883 0.0 1020476
10:00+2зсз457098 0.0 1021755
13:00+3ссз446397 0.0 10211066
16:00+4ссз236194 0.1 10201049
19:000ссз019494 0.3 102283
22:00−2всв008118 0.0 102327
9 марта, вт
вт901:00−2ю018511 0.0 102322
04:00−2ююв118827 0.0 102222
07:00−2юв118629 0.0 102227
10:00+2ююв016427 0.0 1022648
13:00+4сз225246 0.0 10221249
16:00+3ссз225298 0.0 10211351
19:000ссв116689 0.0 102234
22:00−1ююз116920 0.0 102321
10 марта, ср
ср1001:00−1ююз127210 0.0 102422
04:00−2юз11750 0.0 102421
07:00−1ююз12770 0.0 102425
10:00+3зюз22570 0.0 1024648
13:00+6зюз22471 0.0 1022977
16:00+7ююз345180 0.0 10201116
19:00+3ю346889 0.0 101976
22:00+3ю4968100 0.0 1019197